User: anonymous   Login
Location: Unspecified
(0.0000°N, 0.0000°E)
Time: 08:58:06
(UTC+00:00)
Language:

STSS DEMO 1 (USA 208) - Orbit

View from above orbital plane
View from above orbital plane
View from above satellite
View from above satellite

Ground track
Ground track

The orbit data is extracted from the following two-line orbital elements,

1 35937U 09052A   16234.06174793 0.00000000  00000-0  00000-0 0    09
2 35937  57.9907 115.3303 0012464 342.3973  17.6027 12.79321013    02
Epoch (UTC): 21 August 2016 01:28:55
Eccentricity: 0.0012464
inclination: 57.9907°
perigee height: 1334 km
apogee height: 1354 km
right ascension of ascending node: 115.3303°
argument of perigee: 342.3973°
revolutions per day: 12.79321013
mean anomaly at epoch: 17.6027°
orbit number at epoch: 0

The dashed part of the orbit path shows where the satellite is in the earth's shadow,  

DLR